contact:dominique.lefevre@mio.osupytheas.fr, maurice.libes@osupytheas.fr, didier.mallarino@osupytheas.fr
Project:EMSO http://www.emso-fr.org/EMSO-France
Depth: 2436.0 m
Title:EMSO Ligure Ouest : Data MII capteur MICROCAT
DateTime_Computer,Latitude,Longitude,Temperature,Conductivity,Pressure,DateTime_Instrument
DateTime_Computer,Latitude,Longitude,degC,S m-1,dbar,DateTime_Instrument
2023-11-20T00:02:38Z,42.805,6.029,13.3031,4.60097,2470.717,2023-11-20T02:05:05Z
2023-11-20T00:05:41Z,42.805,6.029,13.3031,4.60099,2470.717,2023-11-20T02:08:08Z
2023-11-20T00:08:44Z,42.805,6.029,13.3033,4.60097,2470.717,2023-11-20T02:11:12Z
2023-11-20T00:11:47Z,42.805,6.029,13.3031,4.60097,2470.717,2023-11-20T02:14:15Z
2023-11-20T00:14:50Z,42.805,6.029,13.3030,4.60098,2470.707,2023-11-20T02:17:18Z
2023-11-20T00:17:53Z,42.805,6.029,13.3028,4.60099,2470.717,2023-11-20T02:20:21Z
2023-11-20T00:20:56Z,42.805,6.029,13.3029,4.60101,2470.73,2023-11-20T02:23:24Z
2023-11-20T00:23:59Z,42.805,6.029,13.3028,4.60097,2470.73,2023-11-20T02:26:27Z
2023-11-20T00:27:02Z,42.805,6.029,13.3029,4.60097,2470.717,2023-11-20T02:29:30Z
2023-11-20T00:30:06Z,42.805,6.029,13.3028,4.60098,2470.693,2023-11-20T02:32:33Z
2023-11-20T00:33:09Z,42.805,6.029,13.3028,4.60098,2470.717,2023-11-20T02:35:36Z
2023-11-20T00:36:12Z,42.805,6.029,13.3033,4.60099,2470.717,2023-11-20T02:38:39Z
2023-11-20T00:39:15Z,42.805,6.029,13.3027,4.60097,2470.717,2023-11-20T02:41:42Z
2023-11-20T00:42:18Z,42.805,6.029,13.3029,4.60101,2470.74,2023-11-20T02:44:45Z
2023-11-20T00:45:21Z,42.805,6.029,13.3029,4.60097,2470.73,2023-11-20T02:47:49Z
2023-11-20T00:48:24Z,42.805,6.029,13.3029,4.60097,2470.74,2023-11-20T02:50:52Z
2023-11-20T00:51:27Z,42.805,6.029,13.3029,4.60099,2470.717,2023-11-20T02:53:55Z
2023-11-20T00:54:30Z,42.805,6.029,13.3031,4.60102,2470.73,2023-11-20T02:56:58Z
2023-11-20T00:57:33Z,42.805,6.029,13.3031,4.60100,2470.754,2023-11-20T03:00:01Z
2023-11-20T01:00:36Z,42.805,6.029,13.3029,4.60099,2470.717,2023-11-20T03:03:04Z
2023-11-20T01:03:40Z,42.805,6.029,13.3031,4.60102,2470.73,2023-11-20T03:06:07Z
2023-11-20T01:06:43Z,42.805,6.029,13.3033,4.60099,2470.717,2023-11-20T03:09:10Z
2023-11-20T01:09:46Z,42.805,6.029,13.3031,4.60099,2470.73,2023-11-20T03:12:13Z
2023-11-20T01:12:49Z,42.805,6.029,13.3031,4.60099,2470.717,2023-11-20T03:15:16Z
2023-11-20T01:15:52Z,42.805,6.029,13.3030,4.60099,2470.73,2023-11-20T03:18:19Z
2023-11-20T01:18:55Z,42.805,6.029,13.3031,4.60100,2470.707,2023-11-20T03:21:23Z
2023-11-20T01:21:58Z,42.805,6.029,13.3030,4.60101,2470.693,2023-11-20T03:24:26Z
2023-11-20T01:25:01Z,42.805,6.029,13.3032,4.60101,2470.74,2023-11-20T03:27:29Z
2023-11-20T01:28:04Z,42.805,6.029,13.3032,4.60099,2470.717,2023-11-20T03:30:32Z
2023-11-20T01:31:07Z,42.805,6.029,13.3033,4.60102,2470.693,2023-11-20T03:33:35Z
2023-11-20T01:34:10Z,42.805,6.029,13.3032,4.60099,2470.707,2023-11-20T03:36:38Z
2023-11-20T01:37:13Z,42.805,6.029,13.3031,4.60099,2470.717,2023-11-20T03:39:41Z
2023-11-20T01:40:17Z,42.805,6.029,13.3028,4.60100,2470.693,2023-11-20T03:42:44Z
2023-11-20T01:43:20Z,42.805,6.029,13.3029,4.60101,2470.67,2023-11-20T03:45:47Z
2023-11-20T01:46:23Z,42.805,6.029,13.3033,4.60102,2470.717,2023-11-20T03:48:50Z
2023-11-20T01:49:26Z,42.805,6.029,13.3032,4.60101,2470.74,2023-11-20T03:51:53Z
2023-11-20T01:52:29Z,42.805,6.029,13.3032,4.60106,2470.73,2023-11-20T03:54:56Z
2023-11-20T01:55:32Z,42.805,6.029,13.3031,4.60101,2470.717,2023-11-20T03:58:00Z
2023-11-20T01:58:35Z,42.805,6.029,13.3029,4.60102,2470.717,2023-11-20T04:01:03Z
2023-11-20T02:01:38Z,42.805,6.029,13.3033,4.60101,2470.717,2023-11-20T04:04:06Z
2023-11-20T02:04:41Z,42.805,6.029,13.3031,4.60103,2470.717,2023-11-20T04:07:09Z
2023-11-20T02:07:44Z,42.805,6.029,13.3034,4.60101,2470.693,2023-11-20T04:10:12Z
2023-11-20T02:10:47Z,42.805,6.029,13.3032,4.60102,2470.717,2023-11-20T04:13:15Z
2023-11-20T02:13:50Z,42.805,6.029,13.3034,4.60101,2470.693,2023-11-20T04:16:18Z
2023-11-20T02:16:54Z,42.805,6.029,13.3032,4.60102,2470.717,2023-11-20T04:19:21Z
2023-11-20T02:19:57Z,42.805,6.029,13.3031,4.60102,2470.74,2023-11-20T04:22:24Z
2023-11-20T02:23:00Z,42.805,6.029,13.3033,4.60101,2470.73,2023-11-20T04:25:27Z
2023-11-20T02:26:03Z,42.805,6.029,13.3034,4.60101,2470.717,2023-11-20T04:28:30Z
2023-11-20T02:29:06Z,42.805,6.029,13.3033,4.60104,2470.693,2023-11-20T04:31:33Z
2023-11-20T02:32:09Z,42.805,6.029,13.3034,4.60101,2470.717,2023-11-20T04:34:37Z
2023-11-20T02:35:12Z,42.805,6.029,13.3031,4.60102,2470.717,2023-11-20T04:37:40Z
2023-11-20T02:38:15Z,42.805,6.029,13.3032,4.60104,2470.73,2023-11-20T04:40:43Z
2023-11-20T02:41:18Z,42.805,6.029,13.3029,4.60102,2470.693,2023-11-20T04:43:46Z
2023-11-20T02:44:21Z,42.805,6.029,13.3033,4.60103,2470.707,2023-11-20T04:46:49Z
2023-11-20T02:47:24Z,42.805,6.029,13.3036,4.60107,2470.717,2023-11-20T04:49:52Z
2023-11-20T02:50:27Z,42.805,6.029,13.3039,4.60101,2470.67,2023-11-20T04:52:55Z
2023-11-20T02:53:31Z,42.805,6.029,13.3034,4.60108,2470.693,2023-11-20T04:55:58Z
2023-11-20T02:56:34Z,42.805,6.029,13.3056,4.60137,2470.717,2023-11-20T04:59:01Z
2023-11-20T02:59:37Z,42.805,6.029,13.3046,4.60122,2470.707,2023-11-20T05:02:04Z
2023-11-20T03:02:40Z,42.805,6.029,13.3044,4.60117,2470.717,2023-11-20T05:05:07Z
2023-11-20T03:05:43Z,42.805,6.029,13.3043,4.60115,2470.693,2023-11-20T05:08:10Z
2023-11-20T03:08:46Z,42.805,6.029,13.3051,4.60129,2470.717,2023-11-20T05:11:14Z
2023-11-20T03:11:49Z,42.805,6.029,13.3053,4.60146,2470.717,2023-11-20T05:14:17Z
2023-11-20T03:14:52Z,42.805,6.029,13.3050,4.60160,2470.693,2023-11-20T05:17:20Z
2023-11-20T03:17:55Z,42.805,6.029,13.3053,4.60151,2470.73,2023-11-20T05:20:23Z
2023-11-20T03:20:58Z,42.805,6.029,13.3059,4.60137,2470.717,2023-11-20T05:23:26Z
2023-11-20T03:24:01Z,42.805,6.029,13.3047,4.60125,2470.693,2023-11-20T05:26:29Z
2023-11-20T03:27:04Z,42.805,6.029,13.3056,4.60129,2470.717,2023-11-20T05:29:32Z
2023-11-20T03:30:08Z,42.805,6.029,13.3050,4.60138,2470.693,2023-11-20T05:32:35Z
2023-11-20T03:33:11Z,42.805,6.029,13.3041,4.60143,2470.73,2023-11-20T05:35:38Z
2023-11-20T03:36:14Z,42.805,6.029,13.3045,4.60156,2470.717,2023-11-20T05:38:41Z
2023-11-20T03:39:17Z,42.805,6.029,13.3045,4.60135,2470.693,2023-11-20T05:41:44Z
2023-11-20T03:42:20Z,42.805,6.029,13.3049,4.60143,2470.67,2023-11-20T05:44:47Z
2023-11-20T03:45:23Z,42.805,6.029,13.3045,4.60132,2470.707,2023-11-20T05:47:51Z
2023-11-20T03:48:26Z,42.805,6.029,13.3054,4.60145,2470.707,2023-11-20T05:50:54Z
2023-11-20T03:51:29Z,42.805,6.029,13.3046,4.60123,2470.684,2023-11-20T05:53:57Z
2023-11-20T03:54:32Z,42.805,6.029,13.3044,4.60132,2470.67,2023-11-20T05:57:00Z
2023-11-20T03:57:35Z,42.805,6.029,13.3042,4.60121,2470.67,2023-11-20T06:00:03Z
2023-11-20T04:00:38Z,42.805,6.029,13.3047,4.60144,2470.693,2023-11-20T06:03:06Z
2023-11-20T04:03:41Z,42.805,6.029,13.3045,4.60117,2470.707,2023-11-20T06:06:09Z
2023-11-20T04:06:45Z,42.805,6.029,13.3042,4.60129,2470.73,2023-11-20T06:09:12Z
2023-11-20T04:09:48Z,42.805,6.029,13.3036,4.60137,2470.67,2023-11-20T06:12:15Z
2023-11-20T04:12:51Z,42.805,6.029,13.3036,4.60165,2470.693,2023-11-20T06:15:18Z
2023-11-20T04:15:54Z,42.805,6.029,13.3050,4.60132,2470.67,2023-11-20T06:18:21Z
2023-11-20T04:18:57Z,42.805,6.029,13.3042,4.60119,2470.67,2023-11-20T06:21:25Z
2023-11-20T04:22:00Z,42.805,6.029,13.3046,4.60125,2470.684,2023-11-20T06:24:28Z
2023-11-20T04:25:03Z,42.805,6.029,13.3054,4.60125,2470.717,2023-11-20T06:27:31Z
2023-11-20T04:28:06Z,42.805,6.029,13.3043,4.60139,2470.646,2023-11-20T06:30:34Z
2023-11-20T04:31:09Z,42.805,6.029,13.3046,4.60113,2470.684,2023-11-20T06:33:37Z
2023-11-20T04:34:12Z,42.805,6.029,13.3051,4.60111,2470.67,2023-11-20T06:36:40Z
2023-11-20T04:37:15Z,42.805,6.029,13.3043,4.60115,2470.67,2023-11-20T06:39:43Z
2023-11-20T04:40:18Z,42.805,6.029,13.3044,4.60145,2470.693,2023-11-20T06:42:46Z
2023-11-20T04:43:22Z,42.805,6.029,13.3038,4.60105,2470.707,2023-11-20T06:45:49Z
2023-11-20T04:46:25Z,42.805,6.029,13.3049,4.60122,2470.707,2023-11-20T06:48:52Z
2023-11-20T04:49:28Z,42.805,6.029,13.3051,4.60111,2470.679,2023-11-20T06:51:55Z
2023-11-20T04:52:31Z,42.805,6.029,13.3049,4.60106,2470.67,2023-11-20T06:54:58Z
2023-11-20T04:55:34Z,42.805,6.029,13.3040,4.60111,2470.67,2023-11-20T06:58:01Z
2023-11-20T04:58:37Z,42.805,6.029,13.3044,4.60116,2470.67,2023-11-20T07:01:05Z
2023-11-20T05:01:40Z,42.805,6.029,13.3039,4.60112,2470.67,2023-11-20T07:04:08Z
2023-11-20T05:04:43Z,42.805,6.029,13.3046,4.60113,2470.693,2023-11-20T07:07:11Z
2023-11-20T05:07:46Z,42.805,6.029,13.3046,4.60122,2470.67,2023-11-20T07:10:14Z
2023-11-20T05:10:49Z,42.805,6.029,13.3041,4.60105,2470.661,2023-11-20T07:13:17Z
2023-11-20T05:13:52Z,42.805,6.029,13.3045,4.60108,2470.646,2023-11-20T07:16:20Z
2023-11-20T05:16:55Z,42.805,6.029,13.3052,4.60114,2470.67,2023-11-20T07:19:23Z
2023-11-20T05:19:59Z,42.805,6.029,13.3038,4.60147,2470.646,2023-11-20T07:22:26Z
2023-11-20T05:23:02Z,42.805,6.029,13.3043,4.60122,2470.684,2023-11-20T07:25:29Z
2023-11-20T05:26:05Z,42.805,6.029,13.3034,4.60104,2470.693,2023-11-20T07:28:32Z
2023-11-20T05:29:08Z,42.805,6.029,13.3040,4.60102,2470.646,2023-11-20T07:31:35Z
2023-11-20T05:32:10Z,42.805,6.029,13.3034,4.60099,2470.674,2023-11-20T07:34:38Z
2023-11-20T05:35:13Z,42.805,6.029,13.3039,4.60103,2470.67,2023-11-20T07:37:41Z
2023-11-20T05:38:16Z,42.805,6.029,13.3033,4.60101,2470.684,2023-11-20T07:40:44Z
2023-11-20T05:41:19Z,42.805,6.029,13.3036,4.60106,2470.656,2023-11-20T07:43:47Z
2023-11-20T05:44:23Z,42.805,6.029,13.3049,4.60127,2470.67,2023-11-20T07:46:50Z
2023-11-20T05:47:26Z,42.805,6.029,13.3034,4.60103,2470.67,2023-11-20T07:49:53Z
2023-11-20T05:50:29Z,42.805,6.029,13.3034,4.60100,2470.684,2023-11-20T07:52:56Z
2023-11-20T05:53:32Z,42.805,6.029,13.3031,4.60103,2470.67,2023-11-20T07:55:59Z
2023-11-20T05:56:35Z,42.805,6.029,13.3029,4.60104,2470.67,2023-11-20T07:59:03Z
2023-11-20T05:59:38Z,42.805,6.029,13.3031,4.60099,2470.661,2023-11-20T08:02:06Z
2023-11-20T06:02:41Z,42.805,6.029,13.3033,4.60100,2470.67,2023-11-20T08:05:09Z
2023-11-20T06:05:44Z,42.805,6.029,13.3039,4.60103,2470.661,2023-11-20T08:08:12Z
2023-11-20T06:08:47Z,42.805,6.029,13.3032,4.60101,2470.67,2023-11-20T08:11:15Z
2023-11-20T06:11:50Z,42.805,6.029,13.3040,4.60121,2470.661,2023-11-20T08:14:18Z
2023-11-20T06:14:53Z,42.805,6.029,13.3035,4.60102,2470.661,2023-11-20T08:17:21Z
2023-11-20T06:17:56Z,42.805,6.029,13.3032,4.60103,2470.684,2023-11-20T08:20:24Z
2023-11-20T06:21:00Z,42.805,6.029,13.3032,4.60102,2470.661,2023-11-20T08:23:27Z
2023-11-20T06:24:03Z,42.805,6.029,13.3031,4.60101,2470.646,2023-11-20T08:26:30Z
2023-11-20T06:27:06Z,42.805,6.029,13.3036,4.60101,2470.67,2023-11-20T08:29:33Z
2023-11-20T06:30:09Z,42.805,6.029,13.3034,4.60101,2470.707,2023-11-20T08:32:36Z
2023-11-20T06:33:12Z,42.805,6.029,13.3031,4.60101,2470.624,2023-11-20T08:35:40Z
2023-11-20T06:36:15Z,42.805,6.029,13.3034,4.60102,2470.637,2023-11-20T08:38:43Z
2023-11-20T06:39:18Z,42.805,6.029,13.3031,4.60102,2470.684,2023-11-20T08:41:46Z
2023-11-20T06:42:21Z,42.805,6.029,13.3035,4.60101,2470.67,2023-11-20T08:44:49Z
2023-11-20T06:45:24Z,42.805,6.029,13.3033,4.60100,2470.67,2023-11-20T08:47:52Z
2023-11-20T06:48:27Z,42.805,6.029,13.3031,4.60101,2470.646,2023-11-20T08:50:55Z
2023-11-20T06:51:30Z,42.805,6.029,13.3033,4.60102,2470.646,2023-11-20T08:53:58Z
2023-11-20T06:54:33Z,42.805,6.029,13.3032,4.60103,2470.684,2023-11-20T08:57:01Z
2023-11-20T06:57:37Z,42.805,6.029,13.3032,4.60102,2470.693,2023-11-20T09:00:04Z
2023-11-20T07:00:40Z,42.805,6.029,13.3035,4.60102,2470.693,2023-11-20T09:03:07Z
2023-11-20T07:03:43Z,42.805,6.029,13.3035,4.60102,2470.67,2023-11-20T09:06:10Z
2023-11-20T07:06:46Z,42.805,6.029,13.3031,4.60104,2470.67,2023-11-20T09:09:13Z
2023-11-20T07:09:49Z,42.805,6.029,13.3032,4.60102,2470.684,2023-11-20T09:12:17Z
2023-11-20T07:12:52Z,42.805,6.029,13.3032,4.60103,2470.67,2023-11-20T09:15:20Z
2023-11-20T07:15:55Z,42.805,6.029,13.3033,4.60104,2470.684,2023-11-20T09:18:23Z
2023-11-20T07:18:58Z,42.805,6.029,13.3029,4.60104,2470.693,2023-11-20T09:21:26Z
2023-11-20T07:22:01Z,42.805,6.029,13.3035,4.60104,2470.67,2023-11-20T09:24:29Z
2023-11-20T07:25:04Z,42.805,6.029,13.3034,4.60102,2470.684,2023-11-20T09:27:32Z
2023-11-20T07:28:07Z,42.805,6.029,13.3034,4.60102,2470.67,2023-11-20T09:30:35Z
2023-11-20T07:31:10Z,42.805,6.029,13.3035,4.60113,2470.693,2023-11-20T09:33:38Z
2023-11-20T07:34:14Z,42.805,6.029,13.3034,4.60102,2470.67,2023-11-20T09:36:41Z
2023-11-20T07:37:17Z,42.805,6.029,13.3036,4.60109,2470.693,2023-11-20T09:39:44Z
2023-11-20T07:40:20Z,42.805,6.029,13.3035,4.60104,2470.693,2023-11-20T09:42:47Z
2023-11-20T07:43:23Z,42.805,6.029,13.3051,4.60113,2470.693,2023-11-20T09:45:50Z
2023-11-20T07:46:26Z,42.805,6.029,13.3043,4.60112,2470.693,2023-11-20T09:48:54Z
2023-11-20T07:49:29Z,42.805,6.029,13.3048,4.60108,2470.717,2023-11-20T09:51:57Z
2023-11-20T07:52:32Z,42.805,6.029,13.3043,4.60114,2470.684,2023-11-20T09:55:00Z
2023-11-20T07:55:35Z,42.805,6.029,13.3037,4.60132,2470.693,2023-11-20T09:58:03Z
2023-11-20T07:58:38Z,42.805,6.029,13.3043,4.60121,2470.693,2023-11-20T10:01:06Z
2023-11-20T08:01:41Z,42.805,6.029,13.3041,4.60110,2470.693,2023-11-20T10:04:09Z
2023-11-20T08:04:44Z,42.805,6.029,13.3046,4.60103,2470.707,2023-11-20T10:07:12Z
2023-11-20T08:07:47Z,42.805,6.029,13.3033,4.60102,2470.684,2023-11-20T10:10:15Z
2023-11-20T08:10:51Z,42.805,6.029,13.3039,4.60109,2470.707,2023-11-20T10:13:18Z
2023-11-20T08:13:54Z,42.805,6.029,13.3039,4.60104,2470.717,2023-11-20T10:16:21Z
2023-11-20T08:16:57Z,42.805,6.029,13.3034,4.60104,2470.693,2023-11-20T10:19:24Z
2023-11-20T08:20:00Z,42.805,6.029,13.3039,4.60107,2470.693,2023-11-20T10:22:27Z
2023-11-20T08:23:03Z,42.805,6.029,13.3034,4.60103,2470.693,2023-11-20T10:25:31Z
2023-11-20T08:26:06Z,42.805,6.029,13.3030,4.60104,2470.73,2023-11-20T10:28:34Z
2023-11-20T08:29:09Z,42.805,6.029,13.3032,4.60102,2470.74,2023-11-20T10:31:37Z
2023-11-20T08:32:12Z,42.805,6.029,13.3041,4.60108,2470.703,2023-11-20T10:34:40Z
2023-11-20T08:35:15Z,42.805,6.029,13.3035,4.60104,2470.754,2023-11-20T10:37:43Z
2023-11-20T08:38:18Z,42.805,6.029,13.3035,4.60100,2470.754,2023-11-20T10:40:46Z
2023-11-20T08:41:21Z,42.805,6.029,13.3034,4.60102,2470.717,2023-11-20T10:43:49Z
2023-11-20T08:44:25Z,42.805,6.029,13.3038,4.60102,2470.717,2023-11-20T10:46:52Z
2023-11-20T08:47:28Z,42.805,6.029,13.3035,4.60102,2470.74,2023-11-20T10:49:55Z
2023-11-20T08:50:31Z,42.805,6.029,13.3033,4.60102,2470.717,2023-11-20T10:52:58Z
2023-11-20T08:53:34Z,42.805,6.029,13.3034,4.60100,2470.717,2023-11-20T10:56:01Z
2023-11-20T08:56:37Z,42.805,6.029,13.3034,4.60100,2470.754,2023-11-20T10:59:05Z
2023-11-20T08:59:40Z,42.805,6.029,13.3031,4.60100,2470.763,2023-11-20T11:02:08Z
2023-11-20T09:02:43Z,42.805,6.029,13.3031,4.60100,2470.763,2023-11-20T11:05:11Z
2023-11-20T09:05:46Z,42.805,6.029,13.3031,4.60103,2470.754,2023-11-20T11:08:14Z
2023-11-20T09:08:49Z,42.805,6.029,13.3043,4.60104,2470.777,2023-11-20T11:11:17Z
2023-11-20T09:11:52Z,42.805,6.029,13.3032,4.60104,2470.763,2023-11-20T11:14:20Z
2023-11-20T09:14:55Z,42.805,6.029,13.3033,4.60100,2470.74,2023-11-20T11:17:23Z
2023-11-20T09:17:59Z,42.805,6.029,13.3036,4.60104,2470.763,2023-11-20T11:20:26Z
2023-11-20T09:21:02Z,42.805,6.029,13.3050,4.60123,2470.717,2023-11-20T11:23:29Z
2023-11-20T09:24:05Z,42.805,6.029,13.3044,4.60115,2470.754,2023-11-20T11:26:32Z
2023-11-20T09:27:08Z,42.805,6.029,13.3046,4.60119,2470.773,2023-11-20T11:29:35Z
2023-11-20T09:30:13Z,42.805,6.029,13.3033,4.60102,2470.773,2023-11-20T11:32:40Z
2023-11-20T09:33:16Z,42.805,6.029,13.3031,4.60104,2470.763,2023-11-20T11:35:43Z
2023-11-20T09:36:19Z,42.805,6.029,13.3034,4.60101,2470.74,2023-11-20T11:38:46Z
2023-11-20T09:39:22Z,42.805,6.029,13.3030,4.60100,2470.773,2023-11-20T11:41:49Z
2023-11-20T09:42:25Z,42.805,6.029,13.3034,4.60103,2470.763,2023-11-20T11:44:52Z
2023-11-20T09:45:28Z,42.805,6.029,13.3043,4.60113,2470.74,2023-11-20T11:47:56Z
2023-11-20T09:48:31Z,42.805,6.029,13.3036,4.60103,2470.777,2023-11-20T11:50:59Z
2023-11-20T09:51:34Z,42.805,6.029,13.3034,4.60102,2470.763,2023-11-20T11:54:02Z
2023-11-20T09:54:37Z,42.805,6.029,13.3030,4.60102,2470.787,2023-11-20T11:57:05Z
2023-11-20T09:57:40Z,42.805,6.029,13.3031,4.60102,2470.81,2023-11-20T12:00:08Z
2023-11-20T10:00:43Z,42.805,6.029,13.3031,4.60102,2470.8,2023-11-20T12:03:11Z
2023-11-20T10:03:46Z,42.805,6.029,13.3034,4.60102,2470.81,2023-11-20T12:06:14Z
2023-11-20T10:06:50Z,42.805,6.029,13.3031,4.60102,2470.824,2023-11-20T12:09:17Z
2023-11-20T10:09:53Z,42.805,6.029,13.3031,4.60101,2470.787,2023-11-20T12:12:20Z
2023-11-20T10:12:56Z,42.805,6.029,13.3031,4.60102,2470.787,2023-11-20T12:15:23Z
2023-11-20T10:15:59Z,42.805,6.029,13.3034,4.60101,2470.787,2023-11-20T12:18:26Z
2023-11-20T10:19:02Z,42.805,6.029,13.3034,4.60103,2470.871,2023-11-20T12:21:30Z
2023-11-20T10:22:05Z,42.805,6.029,13.3037,4.60102,2470.81,2023-11-20T12:24:33Z
2023-11-20T10:25:08Z,42.805,6.029,13.3035,4.60102,2470.81,2023-11-20T12:27:36Z
2023-11-20T10:28:11Z,42.805,6.029,13.3026,4.60103,2470.787,2023-11-20T12:30:39Z
2023-11-20T10:31:14Z,42.805,6.029,13.3034,4.60102,2470.81,2023-11-20T12:33:42Z
2023-11-20T10:34:17Z,42.805,6.029,13.3032,4.60102,2470.81,2023-11-20T12:36:45Z
2023-11-20T10:37:20Z,42.805,6.029,13.3035,4.60102,2470.787,2023-11-20T12:39:48Z
2023-11-20T10:40:24Z,42.805,6.029,13.3034,4.60102,2470.857,2023-11-20T12:42:51Z
2023-11-20T10:43:27Z,42.805,6.029,13.3034,4.60102,2470.824,2023-11-20T12:45:54Z
2023-11-20T10:46:30Z,42.805,6.029,13.3031,4.60103,2470.81,2023-11-20T12:48:57Z
2023-11-20T10:49:33Z,42.805,6.029,13.3031,4.60102,2470.81,2023-11-20T12:52:00Z
2023-11-20T10:52:36Z,42.805,6.029,13.3033,4.60104,2470.847,2023-11-20T12:55:04Z
2023-11-20T10:55:39Z,42.805,6.029,13.3031,4.60102,2470.871,2023-11-20T12:58:07Z
2023-11-20T10:58:42Z,42.805,6.029,13.3032,4.60104,2470.81,2023-11-20T13:01:10Z
2023-11-20T11:01:45Z,42.805,6.029,13.3029,4.60102,2470.833,2023-11-20T13:04:13Z
2023-11-20T11:04:48Z,42.805,6.029,13.3035,4.60101,2470.796,2023-11-20T13:07:16Z
2023-11-20T11:07:51Z,42.805,6.029,13.3034,4.60102,2470.81,2023-11-20T13:10:19Z
2023-11-20T11:10:54Z,42.805,6.029,13.3033,4.60102,2470.833,2023-11-20T13:13:22Z
2023-11-20T11:13:58Z,42.805,6.029,13.3030,4.60102,2470.833,2023-11-20T13:16:25Z
2023-11-20T11:17:01Z,42.805,6.029,13.3034,4.60102,2470.833,2023-11-20T13:19:28Z
2023-11-20T11:20:04Z,42.805,6.029,13.3033,4.60102,2470.833,2023-11-20T13:22:31Z
2023-11-20T11:23:07Z,42.805,6.029,13.3032,4.60101,2470.833,2023-11-20T13:25:34Z
2023-11-20T11:26:10Z,42.805,6.029,13.3034,4.60103,2470.833,2023-11-20T13:28:37Z
2023-11-20T11:29:13Z,42.805,6.029,13.3041,4.60112,2470.81,2023-11-20T13:31:41Z
2023-11-20T11:32:16Z,42.805,6.029,13.3035,4.60104,2470.847,2023-11-20T13:34:44Z
2023-11-20T11:35:19Z,42.805,6.029,13.3031,4.60104,2470.833,2023-11-20T13:37:47Z
2023-11-20T11:38:22Z,42.805,6.029,13.3034,4.60105,2470.857,2023-11-20T13:40:50Z
2023-11-20T11:41:25Z,42.805,6.029,13.3037,4.60102,2470.833,2023-11-20T13:43:53Z
2023-11-20T11:44:28Z,42.805,6.029,13.3031,4.60102,2470.857,2023-11-20T13:46:56Z
2023-11-20T11:47:31Z,42.805,6.029,13.3034,4.60102,2470.857,2023-11-20T13:49:59Z
2023-11-20T11:50:35Z,42.805,6.029,13.3031,4.60101,2470.824,2023-11-20T13:53:02Z
2023-11-20T11:53:38Z,42.805,6.029,13.3035,4.60102,2470.857,2023-11-20T13:56:05Z
2023-11-20T11:56:41Z,42.805,6.029,13.3031,4.60102,2470.847,2023-11-20T13:59:08Z
2023-11-20T11:59:44Z,42.805,6.029,13.3033,4.60103,2470.857,2023-11-20T14:02:11Z
2023-11-20T12:02:47Z,42.805,6.029,13.3031,4.60104,2470.857,2023-11-20T14:05:15Z
2023-11-20T12:05:50Z,42.805,6.029,13.3031,4.60102,2470.833,2023-11-20T14:08:18Z
2023-11-20T12:08:53Z,42.805,6.029,13.3031,4.60102,2470.88,2023-11-20T14:11:21Z
2023-11-20T12:11:56Z,42.805,6.029,13.3029,4.60102,2470.847,2023-11-20T14:14:24Z
2023-11-20T12:14:59Z,42.805,6.029,13.3030,4.60102,2470.857,2023-11-20T14:17:27Z
2023-11-20T12:18:02Z,42.805,6.029,13.3034,4.60103,2470.857,2023-11-20T14:20:30Z
2023-11-20T12:21:05Z,42.805,6.029,13.3031,4.60102,2470.857,2023-11-20T14:23:33Z
2023-11-20T12:24:09Z,42.805,6.029,13.3034,4.60103,2470.833,2023-11-20T14:26:36Z
2023-11-20T12:27:12Z,42.805,6.029,13.3034,4.60105,2470.833,2023-11-20T14:29:39Z
2023-11-20T12:30:15Z,42.805,6.029,13.3033,4.60103,2470.871,2023-11-20T14:32:42Z
2023-11-20T12:33:18Z,42.805,6.029,13.3033,4.60103,2470.857,2023-11-20T14:35:45Z
2023-11-20T12:36:21Z,42.805,6.029,13.3029,4.60102,2470.857,2023-11-20T14:38:49Z
2023-11-20T12:39:24Z,42.805,6.029,13.3033,4.60105,2470.857,2023-11-20T14:41:52Z
2023-11-20T12:42:27Z,42.805,6.029,13.3036,4.60103,2470.833,2023-11-20T14:44:55Z
2023-11-20T12:45:30Z,42.805,6.029,13.3032,4.60103,2470.857,2023-11-20T14:47:58Z
2023-11-20T12:48:33Z,42.805,6.029,13.3034,4.60104,2470.847,2023-11-20T14:51:01Z
2023-11-20T12:51:36Z,42.805,6.029,13.3034,4.60103,2470.857,2023-11-20T14:54:04Z
2023-11-20T12:54:39Z,42.805,6.029,13.3031,4.60104,2470.871,2023-11-20T14:57:07Z
2023-11-20T12:57:42Z,42.805,6.029,13.3035,4.60102,2470.833,2023-11-20T15:00:10Z
2023-11-20T13:00:46Z,42.805,6.029,13.3036,4.60105,2470.843,2023-11-20T15:03:13Z
2023-11-20T13:03:49Z,42.805,6.029,13.3033,4.60105,2470.857,2023-11-20T15:06:16Z
2023-11-20T13:06:52Z,42.805,6.029,13.3034,4.60104,2470.833,2023-11-20T15:09:19Z
2023-11-20T13:09:55Z,42.805,6.029,13.3033,4.60104,2470.88,2023-11-20T15:12:22Z
2023-11-20T13:12:58Z,42.805,6.029,13.3034,4.60103,2470.871,2023-11-20T15:15:26Z
2023-11-20T13:16:01Z,42.805,6.029,13.3030,4.60103,2470.833,2023-11-20T15:18:29Z
2023-11-20T13:19:04Z,42.805,6.029,13.3032,4.60104,2470.857,2023-11-20T15:21:32Z
2023-11-20T13:22:07Z,42.805,6.029,13.3032,4.60103,2470.81,2023-11-20T15:24:35Z
2023-11-20T13:25:10Z,42.805,6.029,13.3037,4.60104,2470.857,2023-11-20T15:27:38Z
2023-11-20T13:28:13Z,42.805,6.029,13.3034,4.60103,2470.833,2023-11-20T15:30:41Z
2023-11-20T13:31:16Z,42.805,6.029,13.3033,4.60102,2470.833,2023-11-20T15:33:44Z
2023-11-20T13:34:20Z,42.805,6.029,13.3033,4.60102,2470.857,2023-11-20T15:36:47Z
2023-11-20T13:37:23Z,42.805,6.029,13.3031,4.60102,2470.824,2023-11-20T15:39:50Z
2023-11-20T13:40:26Z,42.805,6.029,13.3033,4.60103,2470.847,2023-11-20T15:42:53Z
2023-11-20T13:43:29Z,42.805,6.029,13.3031,4.60104,2470.843,2023-11-20T15:45:56Z
2023-11-20T13:46:32Z,42.805,6.029,13.3033,4.60102,2470.871,2023-11-20T15:48:59Z
2023-11-20T13:49:35Z,42.805,6.029,13.3032,4.60102,2470.847,2023-11-20T15:52:03Z
2023-11-20T13:52:38Z,42.805,6.029,13.3031,4.60101,2470.871,2023-11-20T15:55:06Z
2023-11-20T13:55:41Z,42.805,6.029,13.3031,4.60102,2470.833,2023-11-20T15:58:09Z
2023-11-20T13:58:44Z,42.805,6.029,13.3034,4.60102,2470.833,2023-11-20T16:01:12Z
2023-11-20T14:01:47Z,42.805,6.029,13.3031,4.60102,2470.81,2023-11-20T16:04:15Z
2023-11-20T14:04:50Z,42.805,6.029,13.3032,4.60102,2470.871,2023-11-20T16:07:18Z
2023-11-20T14:07:53Z,42.805,6.029,13.3031,4.60102,2470.857,2023-11-20T16:10:21Z
2023-11-20T14:10:57Z,42.805,6.029,13.3029,4.60102,2470.81,2023-11-20T16:13:24Z
2023-11-20T14:14:00Z,42.805,6.029,13.3034,4.60102,2470.871,2023-11-20T16:16:27Z
2023-11-20T14:17:03Z,42.805,6.029,13.3033,4.60101,2470.894,2023-11-20T16:19:30Z
2023-11-20T14:20:06Z,42.805,6.029,13.3031,4.60102,2470.857,2023-11-20T16:22:33Z
2023-11-20T14:23:09Z,42.805,6.029,13.3031,4.60102,2470.81,2023-11-20T16:25:37Z
2023-11-20T14:26:12Z,42.805,6.029,13.3031,4.60101,2470.833,2023-11-20T16:28:40Z
2023-11-20T14:29:15Z,42.805,6.029,13.3030,4.60102,2470.847,2023-11-20T16:31:43Z
2023-11-20T14:32:18Z,42.805,6.029,13.3029,4.60102,2470.833,2023-11-20T16:34:46Z
2023-11-20T14:35:21Z,42.805,6.029,13.3029,4.60102,2470.847,2023-11-20T16:37:49Z
2023-11-20T14:38:24Z,42.805,6.029,13.3034,4.60102,2470.847,2023-11-20T16:40:52Z
2023-11-20T14:41:27Z,42.805,6.029,13.3029,4.60102,2470.824,2023-11-20T16:43:55Z
2023-11-20T14:44:31Z,42.805,6.029,13.3031,4.60101,2470.824,2023-11-20T16:46:58Z
2023-11-20T14:47:34Z,42.805,6.029,13.3028,4.60102,2470.81,2023-11-20T16:50:01Z
2023-11-20T14:50:37Z,42.805,6.029,13.3033,4.60102,2470.847,2023-11-20T16:53:04Z
2023-11-20T14:53:40Z,42.805,6.029,13.3029,4.60103,2470.81,2023-11-20T16:56:07Z
2023-11-20T14:56:43Z,42.805,6.029,13.3031,4.60102,2470.787,2023-11-20T16:59:11Z
2023-11-20T14:59:46Z,42.805,6.029,13.3031,4.60102,2470.833,2023-11-20T17:02:14Z
2023-11-20T15:02:49Z,42.805,6.029,13.3031,4.60103,2470.81,2023-11-20T17:05:17Z